Location: Chimay
(50.0486°N, 4.3171°E)
Time: 08:19:19
(UTC+00:00)

Cosmos 2219 Rocket - Pass Details

Date: 08 August 2020
Orbit: 826 x 848 km, 71.0° (Epoch: 20 September)

Event Time Altitude Azimuth Distance (km) Brightness Sun altitude
Rises 21:45:22 0° 333° (NNW) 3,413 7.0 -18.8°
Reaches altitude 10° 21:48:22 10° 348° (NNW) 2,478 5.7 -19.1°
Maximum altitude 21:52:48 23° 39° (NE) 1,744 4.0 -19.4°
Enters shadow 21:57:05 11° 90° (E) 2,432 4.3 -19.7°
